• In Spain
  • List of Countries
  • For 7 days
  • Water Temperature
  • Satellite Maps
  • Weather Map
  • Weather Widgets
  • user-avatar
    Login

    Hourly Weather Andora

    Today, 16 December, Saturday

    Time Temperature Precipitation Wind Pressure Humidity
    00:00 -7°C° 0 mm 3 mps 616 mmHg 78%
    01:00 -7°C° 0.1 mm 3 mps 617 mmHg 79%
    02:00 -7°C° 0.1 mm 3 mps 617 mmHg 79%
    03:00 -7°C° 0.1 mm 3 mps 617 mmHg 80%
    04:00 -7°C° 0 mm 3 mps 618 mmHg 80%
    05:00 -7°C° 0 mm 3 mps 618 mmHg 81%
    06:00 -7°C° 0 mm 2 mps 618 mmHg 82%
    07:00 -6°C° 0 mm 2 mps 619 mmHg 78%
    08:00 -7°C° 0 mm 3 mps 620 mmHg 74%
    09:00 -6°C° 0 mm 3 mps 621 mmHg 70%
    10:00 -5°C° 0 mm 3 mps 621 mmHg 64%
    11:00 -4°C° 0 mm 3 mps 622 mmHg 59%
    12:00 -2°C° 0 mm 3 mps 622 mmHg 53%
    13:00 -4°C° 0 mm 3 mps 622 mmHg 55%
    14:00 -4°C° 0 mm 3 mps 622 mmHg 57%
    15:00 -4°C° 0 mm 3 mps 623 mmHg 58%
    16:00 -6°C° 0 mm 3 mps 622 mmHg 63%
    17:00 -7°C° 0 mm 3 mps 622 mmHg 67%
    18:00 -8°C° 0 mm 3 mps 622 mmHg 72%
    19:00 -8°C° 0.1 mm 3 mps 623 mmHg 73%
    20:00 -8°C° 0.1 mm 3 mps 623 mmHg 74%
    21:00 -9°C° 0.1 mm 3 mps 624 mmHg 75%
    22:00 -9°C° 0.1 mm 3 mps 624 mmHg 75%
    23:00 -9°C° 0.1 mm 3 mps 624 mmHg 76%

    Tomorrow, 17 December, Sunday

    Time Temperature Precipitation Wind Pressure Humidity
    00:00 -8°C° 0.1 mm 3 mps 625 mmHg 77%
    01:00 -9°C° 0 mm 3 mps 625 mmHg 77%
    02:00 -9°C° 0 mm 3 mps 625 mmHg 76%
    03:00 -10°C° 0 mm 3 mps 625 mmHg 76%
    04:00 -10°C° 0 mm 3 mps 625 mmHg 75%
    05:00 -10°C° 0 mm 3 mps 625 mmHg 75%
    06:00 -10°C° 0 mm 3 mps 625 mmHg 74%
    07:00 -9°C° 0 mm 3 mps 626 mmHg 71%
    08:00 -8°C° 0 mm 3 mps 627 mmHg 68%
    09:00 -7°C° 0 mm 3 mps 628 mmHg 65%
    10:00 -6°C° 0 mm 3 mps 628 mmHg 61%
    11:00 -4°C° 0 mm 3 mps 629 mmHg 58%
    12:00 -2°C° 0 mm 3 mps 629 mmHg 54%
    13:00 -2°C° 0 mm 3 mps 629 mmHg 57%
    14:00 -2°C° 0 mm 3 mps 629 mmHg 60%
    15:00 -2°C° 0 mm 3 mps 629 mmHg 63%
    16:00 -4°C° 0 mm 3 mps 629 mmHg 68%
    17:00 -5°C° 0 mm 3 mps 628 mmHg 72%
    18:00 -6°C° 0 mm 3 mps 628 mmHg 77%
    19:00 -6°C° 0 mm 3 mps 629 mmHg 78%
    20:00 -6°C° 0 mm 3 mps 629 mmHg 79%
    21:00 -6°C° 0 mm 3 mps 629 mmHg 81%
    22:00 -6°C° 0 mm 3 mps 629 mmHg 81%
    23:00 -6°C° 0 mm 3 mps 630 mmHg 81%

    Day after tomorrow, 18 December, Monday

    Time Temperature Precipitation Wind Pressure Humidity
    00:00 -6°C° 0 mm 3 mps 630 mmHg 81%
    01:00 -6°C° 0 mm 3 mps 630 mmHg 81%
    02:00 -7°C° 0 mm 3 mps 629 mmHg 81%
    03:00 -7°C° 0 mm 3 mps 629 mmHg 81%
    04:00 -7°C° 0 mm 3 mps 629 mmHg 81%
    05:00 -7°C° 0 mm 3 mps 629 mmHg 81%
    06:00 -7°C° 0 mm 3 mps 629 mmHg 81%
    07:00 -6°C° 0 mm 3 mps 630 mmHg 78%
    08:00 -5°C° 0 mm 3 mps 631 mmHg 75%
    09:00 -2°C° 0 mm 3 mps 631 mmHg 72%
    10:00 -1°C° 0 mm 3 mps 631 mmHg 70%
    11:00 0°C° 0 mm 3 mps 632 mmHg 69%
    12:00 +1°C° 0 mm 3 mps 632 mmHg 67%
    13:00 +1°C° 0.1 mm 3 mps 631 mmHg 70%
    14:00 +1°C° 0.1 mm 3 mps 630 mmHg 72%
    15:00 0°C° 0.1 mm 3 mps 630 mmHg 75%
    16:00 0°C° 0.2 mm 3 mps 630 mmHg 78%
    17:00 -1°C° 0.2 mm 3 mps 629 mmHg 80%
    18:00 -1°C° 0.2 mm 3 mps 629 mmHg 83%
    19:00 -1°C° 0.4 mm 3 mps 629 mmHg 84%
    20:00 -1°C° 0.4 mm 3 mps 629 mmHg 85%
    21:00 -2°C° 0.4 mm 4 mps 628 mmHg 86%
    22:00 -2°C° 0.3 mm 4 mps 628 mmHg 86%
    23:00 -2°C° 0.3 mm 4 mps 628 mmHg 87%

    19 December, Tuesday

    Time Temperature Precipitation Wind Pressure Humidity
    00:00 -2°C° 0.3 mm 4 mps 628 mmHg 87%
    01:00 -2°C° 0.2 mm 4 mps 628 mmHg 88%
    02:00 -3°C° 0.2 mm 4 mps 628 mmHg 88%
    03:00 -3°C° 0.2 mm 4 mps 628 mmHg 89%
    04:00 -4°C° 0 mm 4 mps 629 mmHg 89%
    05:00 -4°C° 0 mm 3 mps 629 mmHg 89%
    06:00 -5°C° 0 mm 3 mps 629 mmHg 88%
    07:00 -5°C° 0 mm 3 mps 630 mmHg 85%
    08:00 -3°C° 0 mm 2 mps 630 mmHg 82%
    09:00 -3°C° 0 mm 2 mps 631 mmHg 79%
    10:00 -2°C° 0 mm 2 mps 631 mmHg 73%
    11:00 +1°C° 0 mm 2 mps 632 mmHg 67%
    12:00 +2°C° 0 mm 2 mps 633 mmHg 61%
    13:00 +1°C° 0 mm 2 mps 632 mmHg 64%
    14:00 +1°C° 0 mm 2 mps 632 mmHg 66%
    15:00 +1°C° 0 mm 2 mps 632 mmHg 69%
    16:00 -2°C° 0 mm 2 mps 632 mmHg 74%
    17:00 -4°C° 0 mm 2 mps 631 mmHg 80%
    18:00 -6°C° 0 mm 2 mps 631 mmHg 85%
    19:00 -6°C° 0 mm 2 mps 631 mmHg 82%
    20:00 -6°C° 0 mm 2 mps 631 mmHg 79%
    21:00 -6°C° 0 mm 2 mps 632 mmHg 75%
    22:00 -6°C° 0 mm 2 mps 632 mmHg 73%
    23:00 -6°C° 0 mm 2 mps 632 mmHg 70%

    20 December, Wednesday

    Time Temperature Precipitation Wind Pressure Humidity
    00:00 -6°C° 0 mm 2 mps 632 mmHg 68%
    01:00 -6°C° 0 mm 2 mps 632 mmHg 66%
    02:00 -6°C° 0 mm 2 mps 632 mmHg 64%
    03:00 -6°C° 0 mm 2 mps 632 mmHg 62%
    04:00 -6°C° 0 mm 2 mps 632 mmHg 61%
    05:00 -6°C° 0 mm 2 mps 632 mmHg 60%
    06:00 -6°C° 0 mm 2 mps 632 mmHg 59%
    07:00 -5°C° 0 mm 2 mps 633 mmHg 57%
    08:00 -4°C° 0 mm 2 mps 634 mmHg 55%
    09:00 -3°C° 0 mm 2 mps 634 mmHg 54%
    10:00 -1°C° 0 mm 2 mps 635 mmHg 53%
    11:00 +2°C° 0 mm 2 mps 635 mmHg 53%
    12:00 +3°C° 0 mm 2 mps 636 mmHg 53%
    13:00 +3°C° 0 mm 2 mps 635 mmHg 57%
    14:00 +2°C° 0 mm 2 mps 635 mmHg 61%
    15:00 +2°C° 0 mm 2 mps 634 mmHg 65%
    16:00 -1°C° 0 mm 2 mps 634 mmHg 67%
    17:00 -2°C° 0 mm 2 mps 634 mmHg 70%
    18:00 -4°C° 0 mm 2 mps 633 mmHg 72%
    19:00 -4°C° 0 mm 2 mps 633 mmHg 71%
    20:00 -4°C° 0 mm 2 mps 634 mmHg 69%
    21:00 -4°C° 0 mm 2 mps 634 mmHg 68%
    22:00 -4°C° 0 mm 2 mps 634 mmHg 68%
    23:00 -4°C° 0 mm 2 mps 634 mmHg 68%

    21 December, Thursday

    Time Temperature Precipitation Wind Pressure Humidity
    00:00 -4°C° 0 mm 2 mps 634 mmHg 68%
    01:00 -4°C° 0 mm 2 mps 634 mmHg 69%
    02:00 -4°C° 0 mm 2 mps 634 mmHg 69%
    03:00 -4°C° 0 mm 2 mps 634 mmHg 69%
    04:00 -4°C° 0 mm 2 mps 633 mmHg 70%
    05:00 -4°C° 0 mm 2 mps 633 mmHg 70%
    06:00 -4°C° 0 mm 2 mps 633 mmHg 70%
    07:00 -2°C° 0 mm 2 mps 634 mmHg 68%
    08:00 -1°C° 0 mm 2 mps 635 mmHg 67%
    09:00 +2°C° 0 mm 1 mps 635 mmHg 65%
    10:00 +3°C° 0 mm 1 mps 636 mmHg 63%
    11:00 +5°C° 0 mm 1 mps 636 mmHg 61%
    12:00 +6°C° 0 mm 1 mps 636 mmHg 59%
    13:00 +6°C° 0 mm 1 mps 636 mmHg 62%
    14:00 +5°C° 0 mm 1 mps 636 mmHg 65%
    15:00 +5°C° 0 mm 1 mps 635 mmHg 68%
    16:00 +3°C° 0 mm 1 mps 635 mmHg 71%
    17:00 +1°C° 0 mm 1 mps 634 mmHg 75%
    18:00 -2°C° 0 mm 2 mps 634 mmHg 79%
    19:00 -2°C° 0 mm 2 mps 634 mmHg 78%
    20:00 -2°C° 0 mm 2 mps 634 mmHg 76%
    21:00 -3°C° 0 mm 2 mps 634 mmHg 75%
    22:00 -3°C° 0 mm 2 mps 634 mmHg 74%
    23:00 -3°C° 0 mm 2 mps 634 mmHg 74%
    Show more